This demonstration page uses our WeatherBlox Daily Observations layout. Learn more.

Left ArrowRight Arrow

38.20091, -84.87328

Hourly Observations for July 4, 2015

Temp ( °F °C ) Dew Point ( °F °C ) Humidity (%) Winds ( mph kmh ) Pressure ( in mb ) Visibility ( mi km ) Precip ( " mm )
12:14 am 00:14 Cloudy 68 20 67 19.4 96 96 NNW 3 6 29.88 1012 7 11 0.00 0.00
12:42 am 00:42 Cloudy with Mist and Fog 68 20 67 19.4 96 96 NNW 3 6 29.85 1011 5 8 0.00 0.00
12:53 am 00:53 Cloudy with Mist and Fog 69 20.6 67 19.4 93 93 NNW 3 6 29.87 1011 5 8 0.00 0.00
1:11 am 01:11 Cloudy with Mist and Fog 69 20.6 67 19.4 93 93 NNW 5 7 29.85 1011 6 10 0.00 0.00
1:53 am 01:53 Cloudy with Mist and Fog 69 20.6 67 19.4 93 93 Calm 29.88 1012 5 8 0.00 0.00
2:02 am 02:02 Cloudy with Mist and Fog 69 20.6 67 19.4 93 93 Calm 29.88 1012 4 6 0.00 0.00
2:36 am 02:36 Cloudy with Mist and Fog 68 20 66 18.9 93 93 N 5 7 29.88 1012 3 4 0.00 0.00
2:53 am 02:53 Cloudy with Mist and Fog 68 20 66 18.9 93 93 N 3 6 29.88 1012 4 6 0.00 0.00
3:06 am 03:06 Cloudy with Mist and Fog 68 20 66 18.9 93 93 N 3 6 29.88 1012 4 6 0.00 0.00
3:23 am 03:23 Cloudy with Mist and Fog 68 20 66 18.9 93 93 Calm 29.88 1012 4 6 0.00 0.00
3:53 am 03:53 Cloudy with Mist and Fog 68 20 66 18.9 93 93 NNW 3 6 29.89 1012 3 5 0.00 0.00
4:15 am 04:15 Cloudy with Mist and Fog 68 20 66 18.9 93 93 Calm 29.88 1012 4 6 0.00 0.00
4:48 am 04:48 Cloudy with Mist and Fog 68 20 64 18 88 88 Calm 29.88 1012 4 6 0.00 0.03
4:53 am 04:53 Cloudy with Mist and Fog 68 20 65 18.3 90 90 Calm 29.89 1012 4 6 0.00 0.03
5:10 am 05:10 Cloudy with Mist and Fog 68 20 65 18.3 90 90 Calm 29.88 1012 4 6 0.00 0.00
5:24 am 05:24 Cloudy with Mist and Fog 68 20 65 18.3 90 90 Calm 29.88 1012 4 6 0.00 0.00
5:53 am 05:53 Cloudy with Mist and Fog 67 19.4 65 18.3 93 93 Calm 29.90 1013 3 5 0.00 0.00
6:12 am 06:12 Cloudy with Mist and Fog 67 19.4 65 18.3 93 93 Calm 29.94 1014 3 5 0.00 0.00
6:41 am 06:41 Cloudy with Mist and Fog 67 19.4 65 18.3 93 93 Calm 29.94 1014 2 3 0.00 0.00
6:53 am 06:53 Cloudy with Mist and Fog 67 19.4 65 18.3 93 93 Calm 29.92 1013 2 3 0.00 0.00
7:30 am 07:30 Cloudy with Mist and Fog 68 20 65 18.3 90 90 Calm 29.94 1014 3 4 0.00 0.00
7:40 am 07:40 Cloudy with Mist and Fog 68 20 65 18.3 90 90 Calm 29.94 1014 3 5 0.00 0.00
7:50 am 07:50 Cloudy with Mist and Fog 68 20 64 18 88 88 Calm 29.94 1014 3 5 0.00 0.00
7:53 am 07:53 Cloudy with Mist and Fog 68 20 65 18.3 90 90 Calm 29.95 1014 3 5 0.00 0.00
8:03 am 08:03 Cloudy with Mist and Fog 68 20 65 18.3 90 90 Calm 29.94 1014 4 6 0.00 0.00
8:53 am 08:53 Cloudy with Mist and Fog 69 20.6 65 18.3 87 87 Calm 29.97 1015 5 8 0.00 0.00
9:10 am 09:10 Cloudy with Mist and Fog 69 20.6 65 18.3 87 87 N 3 6 29.97 1015 6 10 0.00 0.00
9:18 am 09:18 Cloudy with Haze 70 21.1 65 18.3 84 84 NNW 3 6 29.97 1015 6 10 0.00 0.00
9:30 am 09:30 Cloudy with Haze 70 21.1 64 17.8 82 82 Calm 29.97 1015 6 10 0.00 0.00
9:53 am 09:53 Cloudy with Haze 70 21.1 65 18.3 84 84 Calm 29.98 1015 6 10 0.00 0.00
10:39 am 10:39 Cloudy 72 22.2 65 18.3 79 79 NE 3 6 29.97 1015 7 11 0.00 0.00
10:53 am 10:53 Cloudy 73 22.8 65 18.3 76 76 VRB 3 6 29.99 1016 8 13 0.00 0.00
11:19 am 11:19 Cloudy 73 22.8 65 18.3 76 76 NE 5 7 29.97 1015 9 14 0.00 0.00
11:53 am 11:53 Mostly Cloudy 75 23.9 65 18.3 71 71 NNE 5 7 29.99 1016 10 16 0.00 0.00
12:40 pm 12:40 Cloudy 75 23.9 65 18.3 71 71 Calm 30.00 1016 10 16 0.00 0.00
12:53 pm 12:53 Cloudy 76 24.4 66 18.9 72 72 Calm 30.00 1016 10 16 0.00 0.00
1:53 pm 13:53 Partly Cloudy 78 25.6 65 18.3 64 64 N 5 7 29.98 1015 10 16 0.00 0.00
2:53 pm 14:53 Partly Cloudy 79 26.1 64 17.8 60 60 NE 5 7 29.98 1015 10 16 0.00 0.00
3:53 pm 15:53 Mostly Cloudy 80 26.7 65 18.3 60 60 Calm 29.98 1015 10 16 0.00 0.00
4:53 pm 16:53 Sunny 81 27.2 64 17.8 57 57 VRB 5 7 29.96 1015 10 16 0.00 0.00
5:53 pm 17:53 Mostly Cloudy 81 27.2 65 18.3 58 58 ENE 5 7 29.96 1014 10 16 0.00 0.00
6:53 pm 18:53 Mostly Sunny 79 26.1 65 18.3 62 62 E 6 9 29.95 1014 10 16 0.00 0.00
7:53 pm 19:53 Sunny 78 25.6 65 18.3 64 64 NE 3 6 29.96 1015 9 14 0.00 0.00
8:53 pm 20:53 Sunny 76 24.4 66 18.9 72 72 Calm 29.98 1015 7 11 0.00 0.00
9:53 pm 21:53 Clear 73 22.8 66 18.9 79 79 NE 3 6 29.99 1016 7 11 0.00 0.00
10:53 pm 22:53 Hazy 73 22.8 66 18.9 79 79 Calm 30.01 1016 4 6 0.00 0.00
11:53 pm 23:53 Hazy 71 21.7 66 18.9 84 84 Calm 30.02 1017 4 6 0.00 0.00

Powered by AerisWeather